Find Ekspress AM-22

NORAD ID: 28134 Int'l Des: 2003-060 Owner: KS Country: RU operational
HEOCIRCULAR

Live Position

Loading 3D Globe...

About Ekspress AM-22

Description loading...

Upcoming Passes

Passes for default location (London). Set your location on the main map for personalized predictions.

Altitude History

Loading altitude history...

Two-Line Element Set

1 28134U 03060A 26106.81910507 -.00000205 00000-0 00000+0 0 9990
2 28134 8.1255 64.7674 0009009 143.6398 43.1144 0.99359660 81426
Epoch: Apr 16, 2026 • Age: 12 hours

Current Status

Altitude 36074.9 km
Velocity 3.06 km/s
Sub-Earth Point -0.04°S, 110.03°E
Launch Date Dec 28, 2003
Age 22.3 years
Type other

Technical Details

Classification Payload
Mass 2542.00 kg
Dry Mass 2200.00 kg
Total Mass 2542.00 kg
Length 2.00 m
Diameter 2.00 m
Span 27.00 m
Shape Cyl + 2 Pan
Manufacturer NPOPMR
Bus Type Ekspress
Phase Status In Orbit
Owner/State KS/RU

Most Searched